This is the latest recevied weather packets stored in our database for station/object KE2HEH. If no packets are shown the sender has not sent any weather packets the latest 10 day(s).
| Time | Temp. | Humidity | Pressure | Rain* | Wind** | Luminosity | Snow |
|---|---|---|---|---|---|---|---|
| 1777556870 | 9.44° C | 97% | 1008.5 hPa | 0 mm | - | 162 W/m² | - |
| 1777556566 | 9.44° C | 97% | 1008.6 hPa | 0 mm | - | 169 W/m² | - |
| 1777556265 | 10° C | 97% | 1008.5 hPa | 0 mm | - | 155 W/m² | - |
| 1777555962 | 10° C | 97% | 1008.7 hPa | 0 mm | - | 135 W/m² | - |
| 1777555657 | 10° C | 97% | 1008.4 hPa | 0 mm | - | 138 W/m² | - |
| 1777555354 | 9.44° C | 97% | 1008.7 hPa | 0 mm | - | 81 W/m² | - |
| 1777555050 | 9.44° C | 97% | 1008.6 hPa | 0 mm | - | 72 W/m² | - |
| 1777554748 | 10° C | 98% | 1008.4 hPa | 0 mm | - | 96 W/m² | - |
| 1777554445 | 9.44° C | 97% | 1008.6 hPa | 0 mm | - | 64 W/m² | - |
| 1777554141 | 9.44° C | 97% | 1008.7 hPa | 0 mm | - | 53 W/m² | - |
| 1777553839 | 9.44° C | 97% | 1008.7 hPa | 0 mm | - | 59 W/m² | - |
| 1777553535 | 9.44° C | 97% | 1008.7 hPa | 0 mm | - | 58 W/m² | - |
| 1777553230 | 9.44° C | 97% | 1008.6 hPa | 0 mm | - | 64 W/m² | - |
| 1777552927 | 8.89° C | 97% | 1008.5 hPa | 0 mm | - | 58 W/m² | - |
| 1777552621 | 8.89° C | 97% | 1008.9 hPa | 0 mm | - | 51 W/m² | - |
| 1777552318 | 9.44° C | 97% | 1008.7 hPa | 0 mm | - | 74 W/m² | - |
| 1777552015 | 9.44° C | 97% | 1008.8 hPa | 0 mm | - | 85 W/m² | - |
| 1777551712 | 9.44° C | 97% | 1008.7 hPa | 0 mm | - | 74 W/m² | - |
| 1777551410 | 8.89° C | 97% | 1008.6 hPa | 0 mm | - | 55 W/m² | - |
| 1777551106 | 9.44° C | 97% | 1008.6 hPa | 0 mm | - | 57 W/m² | - |
| 1777550803 | 9.44° C | 97% | 1008.6 hPa | 0 mm | - | 74 W/m² | - |
| 1777550499 | 9.44° C | 97% | 1008.6 hPa | 0 mm | - | 88 W/m² | - |
| 1777550196 | 8.89° C | 97% | 1008.5 hPa | 0 mm | - | 71 W/m² | - |
| 1777549892 | 8.89° C | 97% | 1008.9 hPa | 0 mm | - | 64 W/m² | - |
| 1777549588 | 8.89° C | 97% | 1008.9 hPa | 0 mm | - | 48 W/m² | - |
* Rain latest hour (hover to see other rain measurements)
** Current wind speed in m/s (hover to see current wind gust speed)